Location: Wien
(48.2082°N, 16.3738°E)
Time: 12:58:50
(UTC+01:00)

Transit 2A Rocket - Visible Passes

Search period start: 22 February 2024 00:00
Search period end: 03 March 2024 00:00
Orbit: 591 x 904 km, 66.7° (Epoch: 21 February)

Date Brightness Start Highest point End Pass type
(mag) Time Alt. Az. Time Alt. Az. Time Alt. Az.
22 Feb 6.9 04:31:54 12° NNW 04:31:54 12° NNW 04:33:19 10° N visible
23 Feb 7.1 03:49:10 13° N 03:49:10 13° N 03:50:03 10° N visible
24 Feb 7.6 03:06:26 11° NNE 03:06:26 11° NNE 03:06:36 10° NNE visible
25 Feb 7.2 04:03:28 11° N 04:03:28 11° N 04:04:04 10° N visible
26 Feb 7.4 03:20:42 11° N 03:20:42 11° N 03:20:57 10° N visible
27 Feb 7.5 06:03:13 10° NNE 06:03:26 10° NNE 06:03:38 10° NNE visible
01 Mar 7.4 05:33:15 10° N 05:34:51 11° NNE 05:36:28 10° NE visible
